Date,TemperatureHighF,TemperatureAvgF,TemperatureLowF,DewpointHighF,DewpointAvgF,DewpointLowF,HumidityHigh,HumidityAvg,HumidityLow,PressureMaxIn,PressureMinIn,WindSpeedMaxMPH,WindSpeedAvgMPH,GustSpeedMaxMPH,PrecipitationSumIn
2013-1-1,29.1,25.2,16.2,27.1,21.5,13.7,92,86,77,30.24,30.10,8,3,13,0.00
2013-1-2,19.6,11.6,1.3,13.7,6.1,-1.4,92,79,58,30.33,30.21,6,3,9,0.00
2013-1-3,28.6,20.6,10.4,24.4,14.9,4.0,86,78,65,30.36,30.25,11,6,23,0.00
2013-1-4,26.7,20.1,12.9,20.7,15.3,9.6,88,82,74,30.38,30.31,15,9,24,0.00
2013-1-5,34.3,26.3,16.8,29.9,22.7,14.4,94,86,76,30.38,30.14,16,6,23,0.00
2013-1-6,34.7,29.6,23.6,30.9,25.8,19.3,88,85,80,30.39,30.03,12,7,23,0.00
2013-1-7,33.3,24.2,11.3,26.4,20.5,9.1,94,86,75,30.49,30.26,11,4,17,0.00
2013-1-8,38.7,29.3,20.6,30.1,24.4,17.9,91,82,71,30.33,30.23,8,4,11,0.00
2013-1-9,45.1,39.9,30.5,35.5,33.7,25.8,86,78,68,30.43,30.18,12,9,23,0.00
2013-1-11,57.3,52.6,48.4,52.9,48.9,45.3,96,87,77,29.91,29.81,15,8,27,0.35
2013-1-13,36.7,31.5,19.9,35.8,30.0,16.6,97,94,86,30.24,29.87,14,7,24,0.71
2013-1-14,20.8,17.7,13.9,16.5,14.2,10.0,92,86,81,30.53,30.25,11,5,22,0.00
2013-1-15,27.4,22.2,15.4,21.4,17.7,13.4,94,83,70,30.49,30.18,10,5,19,0.00
2013-1-16,34.7,27.7,20.8,26.7,22.3,18.6,94,81,58,30.18,29.98,13,6,23,0.00
2013-1-17,36.4,29.4,20.7,28.6,22.9,14.5,94,77,58,30.45,30.11,17,6,29,0.00
2013-1-18,37.9,28.5,18.4,26.3,20.2,14.6,86,72,53,30.52,30.14,17,9,26,0.00
2013-1-19,49.3,41.5,36.0,36.0,31.4,26.3,78,68,58,30.14,29.86,18,13,33,0.00
2013-1-20,41.2,24.0,18.7,34.5,12.7,7.9,77,62,51,30.30,29.88,18,9,45,0.00
2013-1-21,19.4,13.2,6.4,10.1,3.9,-4.1,86,66,53,30.33,30.18,16,8,30,0.00
2013-1-22,12.4,7.1,1.9,-0.3,-2.2,-5.1,81,66,54,30.47,30.32,13,7,26,0.00
2013-1-23,19.7,14.1,8.6,13.4,5.1,-0.6,82,67,55,30.43,30.17,14,6,28,0.00
2013-1-24,20.8,15.8,9.6,13.5,7.2,3.8,88,69,50,30.69,30.24,18,6,26,0.00
2013-1-25,24.6,20.4,16.6,20.3,14.8,8.5,90,79,66,30.50,30.08,9,5,15,0.00
2013-1-26,27.3,23.3,18.8,19.2,16.3,13.5,84,74,65,30.50,30.14,11,4,22,0.00
2013-1-27,34.2,26.0,17.8,32.6,21.2,13.6,94,82,70,30.50,30.12,9,5,18,0.32
2013-1-28,49.6,44.8,34.2,48.7,43.8,32.7,98,96,93,30.14,29.97,13,7,22,0.07
2013-1-29,60.1,53.9,45.6,57.0,52.4,45.1,99,95,89,29.99,29.40,15,9,29,0.02
2013-1-30,62.0,44.6,26.8,58.3,42.9,23.4,98,94,87,29.57,29.24,20,10,39,0.48
2013-1-31,26.8,18.9,8.5,23.6,13.2,0.7,88,78,69,30.15,29.57,18,12,38,0.00
2013-2-1,14.7,8.6,2.9,8.8,2.6,-2.4,82,76,69,30.47,30.15,14,9,31,0.00
2013-2-2,24.2,18.2,14.8,20.9,14.7,8.9,90,86,77,30.34,30.05,13,8,22,0.00
2013-2-3,21.7,18.2,15.6,16.8,13.6,11.6,86,82,75,30.16,30.04,9,6,20,0.00
2013-2-4,32.4,24.5,16.3,25.9,20.4,12.6,93,84,72,30.14,29.88,9,4,12,0.00
2013-2-5,32.7,25.3,13.7,29.4,22.0,11.8,94,87,76,30.09,29.88,11,4,20,0.00
2013-2-6,35.9,30.8,27.2,26.4,23.9,21.6,87,76,59,30.32,30.09,12,4,18,0.00
2013-2-7,49.1,37.5,28.9,38.7,31.6,25.4,95,80,65,30.26,29.83,7,4,12,0.06
2013-2-8,39.1,32.2,27.9,37.8,27.6,20.9,95,83,72,30.41,29.83,19,11,33,0.00
2013-2-9,36.9,28.5,19.8,26.9,22.7,18.0,94,79,64,30.49,30.24,9,3,16,0.00
2013-2-10,47.9,39.6,31.6,45.6,33.9,23.5,95,80,70,30.24,29.69,16,7,31,0.05
2013-2-11,47.9,37.1,30.4,46.2,30.6,23.4,94,77,70,30.05,29.68,23,13,38,0.00
2013-2-12,35.9,30.2,27.1,29.4,24.9,21.9,88,80,74,30.17,29.99,13,6,25,0.00
2013-2-13,43.5,32.0,24.0,31.6,26.2,21.4,91,80,60,30.00,29.80,8,3,14,0.00
2013-2-14,44.4,36.3,32.1,37.1,31.7,26.1,93,84,73,30.01,29.80,17,9,33,0.00
2013-2-15,32.9,28.3,20.2,26.8,22.7,15.4,92,80,58,30.22,30.00,16,5,22,0.00
2013-2-16,23.4,19.7,14.5,19.6,12.8,6.4,90,75,56,30.21,30.13,15,7,27,0.00
2013-2-17,28.6,19.8,10.9,16.2,11.2,5.9,83,70,49,30.31,30.20,8,4,14,0.00
2013-2-18,52.3,38.4,22.9,41.6,29.1,14.2,89,69,59,30.22,29.58,20,10,37,0.10
2013-2-19,44.2,22.8,15.6,41.3,18.3,10.3,92,83,76,30.17,29.55,20,13,40,0.06
2013-2-20,20.2,16.3,8.8,15.3,10.0,3.6,82,76,68,30.40,30.17,12,7,23,0.00
2013-2-21,25.6,23.2,20.2,20.6,17.8,15.4,90,80,74,30.43,30.13,16,8,23,0.00
2013-2-22,34.2,29.3,22.3,32.8,27.5,19.9,97,93,89,30.13,29.92,16,7,30,0.09
2013-2-23,29.7,27.0,24.1,26.3,22.2,19.6,89,82,74,30.04,29.98,11,6,18,0.00
2013-2-24,37.7,28.2,20.0,26.7,21.7,17.4,90,77,60,30.21,30.02,8,3,16,0.00
2013-2-25,41.1,32.4,23.3,29.5,25.5,20.3,90,76,60,30.25,30.00,13,5,20,0.00
2013-2-26,33.7,32.1,30.7,32.3,29.2,25.3,97,89,77,30.00,29.46,18,8,31,0.44
2013-2-27,33.7,32.2,29.7,32.8,30.8,28.4,97,95,91,29.69,29.50,13,9,22,0.14
2013-2-28,36.9,33.1,30.4,32.3,30.5,28.1,97,90,82,30.02,29.67,12,8,21,0.01
2013-3-1,31.9,30.0,26.1,29.1,26.2,20.4,96,86,75,30.15,30.00,12,7,17,0.00
2013-3-2,31.1,26.9,23.9,21.1,19.4,17.6,83,73,63,30.17,30.11,15,10,22,0.00
2013-3-3,31.5,26.6,19.2,22.8,20.0,15.7,90,77,59,30.16,30.10,13,5,20,0.00
2013-3-4,36.7,27.1,14.8,28.7,20.6,12.9,95,78,55,30.21,30.06,10,3,14,0.00
2013-3-5,33.1,30.1,26.5,29.4,28.2,25.5,96,92,83,30.08,29.72,15,9,28,0.00
2013-3-6,33.3,29.6,25.3,29.1,26.4,23.0,96,88,79,30.31,29.83,21,10,35,0.02
2013-3-7,36.2,32.5,27.8,29.8,27.1,23.4,93,81,65,30.46,30.30,9,5,13,0.06
2013-3-8,40.2,30.3,19.1,25.7,22.6,17.3,94,74,54,30.55,30.44,6,2,11,0.00
2013-3-9,44.6,37.1,28.7,36.1,29.9,22.7,83,75,62,30.44,30.00,10,5,19,0.02
2013-3-10,62.8,52.7,44.1,46.5,40.6,35.3,75,64,50,30.00,29.76,13,6,25,0.00
2013-3-11,53.8,44.3,32.4,47.8,40.7,30.6,97,88,66,29.84,29.59,19,9,31,0.14
2013-3-12,37.2,32.4,29.7,30.8,27.5,23.4,94,83,65,30.04,29.84,15,9,35,0.00
2013-3-13,31.5,27.2,23.8,27.8,19.0,14.0,89,71,52,30.37,30.03,15,9,29,0.00
2013-3-14,39.7,30.3,21.3,29.1,21.0,14.6,88,69,44,30.39,30.19,9,4,17,0.00
2013-3-15,48.0,37.1,29.0,40.8,33.7,27.3,94,88,69,30.19,29.81,10,4,14,0.04
2013-3-16,43.3,37.2,30.9,39.4,34.9,26.9,97,91,81,30.11,29.65,13,7,20,0.00
2013-3-17,35.6,30.4,28.0,27.4,24.2,22.1,87,78,66,30.24,30.09,14,9,23,0.00
2013-3-18,37.5,32.1,28.0,36.7,29.9,23.7,97,92,79,30.09,29.59,14,8,28,0.03
2013-3-19,36.2,28.3,22.0,24.8,17.9,12.5,81,66,48,30.13,29.84,20,13,43,0.00
2013-3-20,30.6,24.9,20.9,18.5,13.0,7.9,78,60,47,30.12,30.04,14,9,28,0.00
2013-3-21,33.6,23.0,15.1,16.4,12.9,9.5,84,66,43,30.08,30.03,12,5,22,0.00
2013-3-22,41.3,29.4,17.2,21.8,17.9,14.0,90,64,40,30.12,30.04,9,3,17,0.00
2013-3-23,41.9,33.0,25.3,26.5,21.9,16.3,79,64,48,30.15,29.99,10,4,17,0.00
2013-3-24,34.6,30.6,27.4,27.2,24.8,22.2,96,79,66,30.02,29.55,23,12,38,0.00
2013-3-25,34.5,30.1,26.8,30.3,27.5,25.8,96,90,75,30.03,29.58,17,12,27,0.01
2013-3-26,38.2,33.3,30.1,30.2,28.0,24.3,93,81,59,30.27,30.03,12,7,20,0.00
2013-3-27,40.3,33.1,24.7,29.3,26.1,22.2,91,76,62,30.36,30.27,13,5,19,0.00
2013-3-28,45.3,35.4,25.8,31.8,26.7,22.3,88,71,56,30.41,30.33,10,4,17,0.00
2013-3-29,52.5,40.0,28.7,36.0,28.9,23.9,91,67,41,30.37,30.26,7,2,13,0.00
2013-3-30,55.1,42.7,27.1,37.9,31.2,22.3,90,65,46,30.28,29.96,10,3,15,0.00
2013-3-31,59.7,49.2,41.8,44.0,39.8,31.3,96,71,47,29.96,29.74,16,7,27,0.00
2013-4-1,41.8,35.9,28.8,33.8,23.4,17.0,79,61,42,30.19,29.83,15,8,25,0.00
2013-4-2,43.2,32.6,23.5,20.8,16.4,10.4,81,54,30,30.33,30.19,13,5,26,0.00
2013-4-3,45.8,34.4,21.0,22.4,16.3,12.7,78,50,28,30.49,30.33,13,3,21,0.00
2013-4-4,56.1,42.0,29.2,25.1,20.8,15.0,65,44,27,30.39,30.02,7,3,13,0.00
2013-4-5,53.0,44.1,36.6,34.2,26.6,18.4,74,52,27,30.21,30.00,13,6,25,0.00
2013-4-6,66.2,49.7,35.0,41.3,31.4,24.7,69,51,34,30.19,29.79,16,8,29,0.00
2013-4-7,68.3,59.1,49.9,46.3,42.4,38.6,83,55,36,29.97,29.74,17,8,28,0.00
2013-4-8,73.3,59.3,47.0,59.3,50.3,38.5,93,73,56,29.98,29.79,20,8,34,0.47
2013-4-9,78.4,64.8,52.6,62.8,55.3,47.6,89,73,50,30.01,29.85,18,7,30,0.00
2013-4-10,74.8,63.0,49.0,67.0,59.0,48.2,97,87,74,29.89,29.76,19,7,30,1.21
2013-4-11,60.6,50.0,43.6,59.2,49.1,42.8,99,97,91,29.87,29.57,14,7,26,0.82
2013-4-12,44.7,40.2,36.8,44.2,35.6,30.6,98,84,72,29.93,29.59,19,10,34,0.14
2013-4-13,44.1,39.4,35.9,35.7,33.3,29.4,91,79,63,30.04,29.93,16,8,29,0.00
2013-4-14,68.5,51.9,39.5,49.9,41.5,34.2,85,69,50,30.07,29.84,11,5,22,0.00
2013-4-15,64.3,58.7,51.3,57.2,51.5,45.6,88,77,62,29.95,29.84,13,7,20,0.01
2013-4-16,60.6,50.2,45.7,54.7,46.6,41.1,96,88,74,30.25,29.89,16,6,25,0.76
2013-4-17,61.7,51.1,45.7,59.4,47.1,39.8,94,86,78,30.26,29.93,23,8,30,0.11
2013-4-18,71.7,60.3,48.0,66.0,57.9,45.2,98,92,76,29.95,29.55,21,8,34,2.92
2013-4-19,59.9,39.7,34.6,59.0,35.0,29.6,97,83,70,29.95,29.52,22,13,36,1.09
2013-4-20,43.9,37.3,31.6,32.1,27.1,22.5,88,68,44,30.48,29.95,13,8,26,0.00
2013-4-21,50.4,40.3,30.8,32.3,25.5,19.1,68,56,42,30.60,30.43,10,5,19,0.00
2013-4-22,66.1,51.0,34.6,40.5,35.1,31.1,89,58,32,30.43,30.14,8,4,15,0.00
2013-4-23,66.4,56.2,45.3,55.6,47.6,36.6,97,74,54,30.14,29.80,16,5,27,0.99
2013-4-24,45.2,40.3,34.8,43.9,36.1,30.6,97,86,60,30.23,29.80,17,10,25,0.30
2013-4-25,50.7,43.1,35.5,39.0,32.4,26.8,87,67,43,30.41,30.20,16,7,28,0.00
2013-4-26,61.1,47.9,33.5,41.8,35.8,29.9,88,65,42,30.47,30.36,9,4,14,0.00
2013-4-27,67.8,54.8,42.9,48.8,39.2,34.2,74,58,34,30.37,30.11,12,4,23,0.00
2013-4-28,58.9,56.2,51.9,56.7,54.7,50.8,97,94,90,29.91,29.84,6,2,9,0.61
2013-4-29,68.5,59.7,54.6,57.5,54.4,52.6,97,84,63,29.99,29.89,10,5,14,0.00
2013-4-30,78.6,65.3,52.0,63.1,56.2,49.0,91,74,56,30.03,29.93,12,6,20,0.00
2013-5-1,83.6,71.0,56.3,60.1,55.9,51.3,84,61,40,30.16,30.02,8,3,15,0.00
2013-5-2,78.1,69.6,61.2,58.9,55.7,53.4,78,62,47,30.18,30.06,10,4,16,0.00
2013-5-3,75.8,68.4,61.5,60.7,56.1,45.0,79,66,47,30.07,29.92,13,5,19,0.00
2013-5-4,70.8,64.0,57.9,53.3,45.1,39.1,82,52,33,30.01,29.95,11,6,18,0.00
2013-5-5,67.5,59.8,54.0,52.5,49.4,46.3,85,69,49,30.01,29.96,12,6,17,0.00
2013-5-6,68.6,61.8,54.9,54.8,50.0,44.0,81,65,56,30.00,29.93,10,5,16,0.00
2013-5-7,73.5,65.0,57.7,56.5,54.6,52.5,88,70,50,30.02,29.95,12,4,16,0.00
2013-5-8,80.0,65.3,52.8,58.2,53.8,50.3,95,69,39,30.03,29.95,14,2,19,0.00
2013-5-9,80.5,64.0,51.9,60.2,55.3,49.3,96,76,34,30.00,29.87,16,3,21,0.42
2013-5-10,66.9,59.9,46.6,61.0,56.1,43.8,96,87,74,29.92,29.80,13,7,18,0.28
2013-5-11,61.2,47.3,42.6,53.7,43.2,35.4,96,86,70,30.04,29.84,23,7,32,0.03
2013-5-12,52.5,44.6,37.8,36.2,32.2,27.0,86,63,38,30.17,30.04,15,6,24,0.00
2013-5-13,61.4,49.0,35.9,34.5,30.6,24.0,85,54,25,30.22,30.13,14,4,20,0.00
2013-5-14,85.2,67.1,50.2,62.0,48.3,30.0,65,52,42,30.13,29.76,17,8,26,0.00
2013-5-15,85.3,77.2,69.6,61.3,57.6,53.6,67,52,39,29.81,29.73,16,8,24,0.00
2013-5-16,82.8,70.3,57.6,58.4,53.0,46.6,94,58,32,29.95,29.79,12,2,15,0.00
2013-5-17,79.7,64.6,56.7,67.1,58.6,50.7,97,82,56,30.06,29.95,12,3,19,0.37
2013-5-18,80.1,67.1,57.1,65.1,58.2,47.4,92,74,57,30.10,29.97,7,3,12,0.00
2013-5-19,85.3,73.5,59.5,67.9,62.7,53.1,89,70,52,30.00,29.83,8,3,14,0.00
2013-5-20,85.8,77.0,69.1,70.5,67.7,65.4,95,74,55,29.90,29.79,15,8,21,0.00
2013-5-21,85.3,74.2,63.9,68.3,63.9,61.0,93,72,46,29.83,29.71,21,8,31,0.10
2013-5-22,75.5,68.5,61.3,64.5,62.2,58.6,95,81,65,29.76,29.68,15,7,25,0.26
2013-5-23,61.4,56.1,46.7,59.9,53.3,43.8,95,90,83,30.18,29.75,16,8,23,0.11
2013-5-24,62.8,51.4,41.2,43.5,40.7,36.4,95,70,39,30.40,30.18,13,7,20,0.00
2013-5-25,63.9,53.9,42.2,46.7,42.1,37.8,88,66,43,30.42,30.26,8,3,11,0.00
2013-5-26,70.7,59.8,45.9,51.4,44.9,40.1,92,60,40,30.33,30.18,7,3,15,0.00
2013-5-27,66.1,59.3,50.7,64.8,55.2,48.4,97,87,64,30.20,29.89,11,4,22,2.16
2013-5-28,79.4,71.2,62.1,70.7,65.6,60.9,97,83,71,29.95,29.85,17,8,25,0.08
2013-5-29,84.5,76.3,69.6,68.6,64.8,60.9,82,68,52,30.00,29.90,14,8,20,0.00
2013-5-30,86.3,76.7,68.0,70.3,66.3,62.5,85,71,54,30.04,29.90,16,8,25,0.00
2013-5-31,75.8,71.5,64.6,69.7,66.9,61.7,95,85,77,29.97,29.83,14,8,25,0.19
2013-6-1,73.8,69.0,63.3,69.1,64.4,62.1,96,86,73,29.88,29.74,19,7,26,0.61
2013-6-2,68.7,61.4,52.1,63.4,57.3,44.3,94,86,76,30.02,29.75,13,7,23,0.04
2013-6-3,66.2,55.6,45.4,50.6,44.5,38.6,93,69,43,30.12,30.02,9,5,16,0.00
2013-6-4,74.0,62.7,48.6,51.3,48.2,45.6,92,62,39,30.19,30.09,8,3,14,0.00
2013-6-5,78.4,67.0,54.7,55.4,50.5,46.1,75,56,39,30.12,29.90,9,4,13,0.00
2013-6-6,75.9,64.9,58.0,59.2,52.7,44.6,78,65,51,29.92,29.81,10,5,14,0.00
2013-6-7,72.0,64.3,57.7,57.8,55.4,53.6,91,74,56,29.91,29.84,10,5,14,0.00
2013-6-8,79.1,66.8,52.5,60.0,54.4,49.9,93,67,42,30.02,29.90,6,2,12,0.00
2013-6-9,83.1,72.1,63.7,65.4,60.9,55.1,90,70,41,30.03,29.84,10,4,16,0.16
2013-6-10,77.1,69.2,62.6,66.2,63.8,61.2,97,84,63,29.85,29.75,12,5,19,1.21
2013-6-11,83.7,71.2,60.9,69.0,64.9,60.3,98,82,53,29.95,29.81,9,3,12,0.04
2013-6-12,88.4,77.4,64.4,76.6,71.1,62.8,96,82,64,29.90,29.61,24,5,34,0.81
2013-6-13,75.3,68.0,60.8,66.0,60.3,53.3,99,78,52,29.97,29.58,20,9,29,0.88
2013-6-14,80.4,66.5,55.5,64.3,57.9,53.8,95,76,48,30.10,29.96,10,4,14,0.00
2013-6-15,77.4,68.1,58.3,68.7,62.3,57.1,97,83,62,30.10,29.92,8,2,15,0.01
2013-6-16,80.3,72.5,66.5,69.6,66.2,62.9,93,81,66,29.95,29.89,13,6,19,0.03
2013-6-17,86.3,75.4,66.6,71.4,67.0,61.5,98,78,44,29.95,29.86,6,3,12,0.00
2013-6-18,78.1,72.0,65.8,66.9,63.3,58.6,95,75,56,30.01,29.84,10,5,16,0.00
2013-6-19,80.9,68.4,57.8,64.0,56.1,49.6,87,66,43,30.13,30.01,6,3,12,0.00
2013-6-20,86.2,73.4,59.8,67.8,60.5,54.1,85,66,46,30.19,30.11,6,2,11,0.00
2013-6-21,88.3,77.0,64.7,66.0,62.4,58.5,83,63,39,30.18,29.96,13,4,18,0.00
2013-6-22,89.5,76.0,67.6,74.9,68.9,65.2,98,79,60,30.11,29.99,22,4,36,0.79
2013-6-23,86.8,74.6,66.5,73.2,68.0,65.3,98,82,53,30.10,29.99,15,4,23,0.00
2013-6-24,85.8,75.6,67.2,72.7,68.5,64.1,96,80,58,30.10,29.94,16,5,30,0.05
2013-6-25,88.2,77.6,66.9,74.9,69.8,63.8,97,78,59,30.00,29.82,14,6,22,0.05
2013-6-26,82.1,72.4,67.3,74.7,68.7,65.5,96,88,68,29.90,29.72,11,3,19,0.72
2013-6-27,84.2,75.5,70.1,73.1,70.4,68.2,99,85,67,29.77,29.66,11,4,18,0.00
2013-6-28,81.0,71.7,63.5,70.2,65.1,60.0,97,81,56,29.67,29.57,13,4,24,0.06
2013-6-29,76.1,66.8,61.5,66.7,63.8,59.6,98,90,70,29.68,29.56,9,2,16,0.12
2013-6-30,71.3,65.7,60.9,64.3,62.3,59.8,98,89,71,29.90,29.68,13,6,18,1.43
2013-7-1,71.8,66.6,62.7,63.8,60.9,57.3,91,82,73,30.00,29.89,14,7,20,0.00
2013-7-2,74.7,65.6,58.9,68.2,62.4,57.1,97,90,78,30.02,29.96,12,5,16,1.87
2013-7-3,79.3,69.8,62.5,68.4,64.9,62.2,99,86,61,30.09,29.99,12,3,16,0.01
2013-7-4,79.2,69.4,61.2,68.3,63.4,58.5,99,83,51,30.15,30.06,5,1,10,0.00
2013-7-5,82.3,73.0,65.2,70.3,67.2,64.3,98,83,62,30.12,30.04,6,2,9,0.00
2013-7-6,78.5,71.3,68.1,70.1,68.1,65.9,97,90,73,30.10,30.01,6,2,9,0.01
2013-7-7,82.2,72.5,63.9,71.8,67.6,63.1,98,86,65,30.08,29.99,10,3,13,0.00
2013-7-8,83.3,76.2,68.9,75.3,71.1,66.9,94,84,73,30.08,29.98,9,4,14,0.00
2013-7-9,86.0,79.8,73.2,77.6,74.0,70.6,92,83,71,30.02,29.90,11,5,15,0.01
2013-7-10,84.2,78.1,64.5,77.9,74.0,63.0,98,87,77,30.03,29.82,19,4,26,0.58
2013-7-11,77.0,70.2,58.0,62.0,59.0,55.6,94,69,51,30.07,30.01,11,6,17,0.00
2013-7-12,79.5,69.0,56.9,64.1,59.4,54.9,94,73,50,30.13,30.05,10,3,16,0.00
2013-7-13,82.5,72.0,60.7,69.2,64.4,58.3,93,78,61,30.16,30.09,7,3,13,0.00
2013-7-14,90.3,77.4,66.7,75.9,70.7,65.5,96,81,60,30.20,30.14,6,2,11,0.00
2013-7-15,91.0,80.9,72.2,76.2,73.2,70.8,96,79,56,30.28,30.19,6,2,9,0.00
2013-7-16,92.1,80.6,69.3,79.2,72.9,68.2,98,79,55,30.33,30.25,4,1,7,0.00
2013-7-17,90.7,80.6,70.2,77.9,73.5,69.6,99,81,56,30.33,30.17,5,1,8,0.00
2013-7-18,92.4,81.7,71.2,78.4,74.3,70.0,97,80,60,30.19,29.99,5,2,10,0.00
2013-7-19,89.8,81.7,73.2,77.4,74.1,71.1,94,79,63,30.01,29.81,11,5,19,0.00
2013-7-20,84.5,77.2,70.9,75.5,72.5,69.7,96,86,72,29.90,29.77,8,5,15,0.17
2013-7-21,89.4,75.7,65.3,73.4,69.7,64.7,98,83,55,29.97,29.86,5,1,12,0.00
2013-7-22,83.8,73.6,66.2,73.8,69.0,64.7,97,86,67,29.89,29.76,6,2,10,0.97
2013-7-23,81.9,72.8,60.1,71.3,66.5,54.9,98,82,64,29.90,29.70,16,6,23,0.00
2013-7-24,73.3,62.2,53.0,61.1,54.5,50.4,94,77,54,30.04,29.89,11,5,17,0.00
2013-7-25,79.7,65.1,53.3,63.5,56.7,52.8,98,77,49,30.13,30.04,6,1,8,0.00
2013-7-26,80.2,67.4,54.6,63.7,59.2,53.0,96,77,53,30.11,29.92,8,3,12,0.00
2013-7-27,74.3,68.0,57.1,65.6,60.5,51.1,94,78,56,29.92,29.82,12,6,19,0.00
2013-7-28,69.3,60.0,49.8,55.4,51.3,47.2,92,74,55,30.04,29.91,12,5,18,0.00
2013-7-29,74.8,62.6,50.9,61.5,54.7,48.6,94,77,56,30.19,30.04,9,3,15,0.00
2013-7-30,78.3,66.0,53.8,65.5,60.1,53.2,98,83,56,30.23,30.10,4,1,9,0.01
2013-7-31,73.5,67.6,63.9,70.0,65.5,62.4,97,93,87,30.10,29.93,9,2,12,0.23
2013-8-1,78.9,69.1,60.9,67.9,62.8,59.2,98,82,55,30.00,29.92,9,3,16,0.00
2013-8-2,81.6,68.4,55.8,68.7,62.6,55.0,97,83,63,29.99,29.87,14,4,24,0.20
2013-8-3,79.8,69.5,61.4,67.3,62.8,54.5,99,81,55,30.08,29.93,12,4,23,1.03
2013-8-4,75.1,65.1,53.7,60.8,56.4,51.9,95,75,52,30.18,30.07,9,3,16,0.00
2013-8-5,77.7,66.1,59.2,65.1,60.1,56.5,95,82,56,30.13,29.95,6,2,9,0.01
2013-8-6,79.0,70.1,62.4,71.2,65.5,59.8,94,86,76,29.96,29.89,5,3,8,0.00
2013-8-7,83.5,75.1,68.7,75.1,71.4,67.5,98,89,75,29.91,29.83,8,3,15,0.00
2013-8-8,74.9,71.0,66.7,71.8,68.9,66.1,98,93,85,29.96,29.88,6,3,10,0.20
2013-8-9,81.2,72.2,64.4,68.7,66.2,59.9,98,83,52,30.03,29.93,6,2,10,0.00
2013-8-10,82.0,72.7,63.8,71.3,66.3,62.6,97,82,57,30.09,30.02,7,2,11,0.00
2013-8-11,83.3,70.9,61.3,68.3,64.5,60.7,99,82,52,30.12,30.05,6,2,9,0.00
2013-8-12,83.9,72.2,60.9,71.4,66.6,60.1,98,84,63,30.08,29.85,6,2,11,0.01
2013-8-13,70.3,64.5,54.1,67.5,57.0,48.7,97,78,50,30.11,29.87,14,7,21,0.00
2013-8-14,70.6,58.1,48.1,58.8,50.0,46.3,96,76,53,30.24,30.11,9,4,14,0.00
2013-8-15,76.1,60.3,46.4,61.6,52.2,45.6,99,78,46,30.21,30.12,5,1,9,0.00
2013-8-16,77.1,64.6,55.3,63.7,57.5,53.6,98,80,50,30.19,30.14,5,1,7,0.03
2013-8-17,77.5,65.5,55.1,62.3,58.1,53.8,98,79,54,30.24,30.16,6,3,14,0.00
2013-8-18,83.6,69.4,56.9,67.3,60.5,55.5,97,76,44,30.20,30.10,6,1,10,0.00
2013-8-19,83.8,70.2,57.4,68.7,62.6,56.5,98,79,53,30.14,30.06,5,1,9,0.00
2013-8-20,87.1,73.4,60.1,70.5,64.7,59.3,99,77,49,30.16,30.07,5,1,9,0.00
2013-8-21,85.9,74.2,64.8,72.7,67.1,62.4,94,80,56,30.15,30.01,6,2,11,0.00
2013-8-22,80.5,71.3,67.5,71.7,67.8,65.4,96,89,74,30.10,30.00,10,3,15,0.05
2013-8-23,82.5,70.4,61.9,69.2,64.2,58.8,99,83,52,30.17,30.07,7,3,10,0.01
2013-8-24,83.1,69.5,55.5,62.6,57.9,53.0,98,70,36,30.29,30.16,6,2,11,0.00
2013-8-25,86.6,72.4,60.2,69.6,62.5,57.6,94,74,46,30.31,30.19,6,2,10,0.00
2013-8-26,86.8,74.0,60.4,74.3,67.3,58.1,93,81,61,30.23,30.05,8,3,13,0.00
2013-8-27,89.2,78.6,70.9,77.6,72.5,68.5,94,82,65,30.06,29.90,8,4,12,0.00
2013-8-28,86.5,79.0,72.6,76.4,72.2,69.0,96,80,68,29.98,29.86,10,6,16,0.00
2013-8-29,88.4,76.0,68.2,73.9,70.1,66.7,99,84,55,30.06,29.98,5,2,9,0.00
2013-8-30,90.3,77.2,64.1,74.2,69.7,63.3,99,80,55,29.99,29.75,7,3,13,0.00
2013-8-31,82.8,73.6,67.3,74.6,69.3,65.5,96,87,65,29.87,29.74,12,3,20,0.30
2013-9-1,76.8,71.5,66.8,71.8,69.1,65.9,98,92,82,29.80,29.76,6,2,9,0.00
2013-9-2,79.5,71.3,60.8,69.5,64.7,57.5,99,81,53,29.95,29.75,12,5,18,0.00
2013-9-3,73.1,61.3,50.0,59.2,54.9,49.2,98,81,59,30.08,29.95,9,3,15,0.00
2013-9-4,80.3,64.6,50.5,62.8,57.1,50.0,99,80,49,30.16,30.06,8,2,11,0.01
2013-9-5,79.0,67.3,57.2,63.2,57.7,46.9,98,74,48,30.22,30.12,8,3,12,0.00
2013-9-6,83.0,66.1,50.2,63.7,52.7,46.2,90,65,38,30.26,30.08,6,2,9,0.00
2013-9-7,85.9,72.1,58.6,68.0,61.7,54.8,88,71,47,30.08,29.91,10,3,15,0.00
2013-9-8,82.2,72.0,63.2,70.8,66.3,61.7,98,83,66,30.00,29.93,9,3,14,0.00
2013-9-9,92.1,76.6,63.0,73.4,68.3,61.4,96,78,53,30.00,29.88,10,4,16,0.00
2013-9-10,95.3,82.9,72.4,74.7,70.0,63.3,95,69,35,30.06,29.94,9,4,15,0.00
2013-9-11,93.5,81.7,71.2,72.2,68.2,62.3,93,67,40,30.08,29.95,11,4,16,0.00
2013-9-12,81.1,71.6,60.6,70.1,64.4,54.0,98,80,47,29.98,29.83,17,4,23,1.01
2013-9-13,64.9,57.0,49.9,54.1,47.4,43.6,89,72,48,30.14,29.99,13,6,20,0.00
2013-9-14,71.1,53.9,40.2,51.2,42.7,34.9,98,71,29,30.24,30.11,6,1,10,0.00
2013-9-15,74.6,58.0,46.4,58.7,49.3,42.3,96,76,41,30.15,30.01,8,3,17,0.30
2013-9-16,66.8,57.7,50.5,55.9,53.8,49.4,97,88,66,30.33,30.12,8,3,12,0.01
2013-9-17,70.2,58.1,46.7,56.6,50.4,45.3,95,77,53,30.38,30.19,7,3,11,0.01
2013-9-18,82.6,67.8,56.6,65.5,57.2,49.2,94,71,44,30.19,30.01,6,2,11,0.01
2013-9-19,77.2,69.2,63.7,70.3,67.1,62.8,99,93,78,30.05,29.88,8,3,13,1.65
2013-9-20,78.0,71.5,65.8,70.8,68.3,64.0,98,90,75,29.92,29.77,9,5,16,0.21
2013-9-21,68.5,60.2,51.2,63.8,52.7,46.7,96,78,48,29.92,29.75,13,5,19,0.00
2013-9-22,65.8,55.4,46.9,49.7,46.8,44.4,97,75,48,30.06,29.92,10,3,16,0.00
2013-9-23,69.0,55.5,43.7,49.9,46.3,41.9,94,74,47,30.16,30.06,6,3,11,0.00
2013-9-24,70.9,57.1,44.6,51.7,47.7,42.9,94,73,46,30.12,29.95,7,3,12,0.00
2013-9-25,73.5,60.6,49.7,54.0,50.6,47.8,94,72,43,29.98,29.91,7,4,13,0.00
2013-9-26,78.3,62.2,48.6,56.6,52.5,47.8,98,74,39,30.10,29.96,6,2,10,0.00
2013-9-27,79.6,63.5,49.1,54.3,49.8,44.2,90,65,30,30.21,30.10,5,2,8,0.00
2013-9-28,82.3,66.4,51.1,57.2,54.1,49.4,95,68,39,30.17,30.00,8,3,13,0.00
2013-9-29,67.1,61.2,54.1,61.4,58.2,53.3,98,90,77,30.02,29.97,7,2,10,0.30
2013-9-30,74.5,60.5,52.0,60.6,56.3,51.6,99,88,55,30.04,29.93,8,2,12,0.02
2013-10-1,74.6,64.6,58.3,63.9,60.9,57.6,99,89,68,30.06,29.98,8,4,16,0.01
2013-10-2,79.9,67.4,59.8,69.2,64.2,59.2,99,90,66,30.10,30.01,6,2,10,0.00
2013-10-3,80.6,70.9,64.0,69.2,65.7,62.9,98,85,59,30.04,29.92,9,3,16,0.06
2013-10-4,85.5,73.4,66.2,70.9,67.3,64.7,95,82,59,30.03,29.95,9,4,16,0.01
2013-10-5,79.8,70.2,66.2,71.5,67.4,64.3,98,91,69,30.00,29.84,10,4,17,0.23
2013-10-6,66.1,59.7,47.2,64.5,56.4,40.8,97,90,69,29.88,29.71,11,5,20,0.77
2013-10-7,62.2,50.2,43.6,49.1,44.2,40.3,94,81,53,30.16,29.81,13,5,18,0.01
2013-10-8,72.0,55.8,44.9,52.2,47.1,43.6,96,76,44,30.28,30.17,7,2,9,0.00
2013-10-9,72.8,57.1,43.6,50.9,46.4,41.9,95,70,42,30.29,30.17,6,1,12,0.00
2013-10-10,74.3,58.0,43.2,53.4,47.6,42.4,98,73,37,30.22,30.10,4,1,8,0.00
2013-10-11,77.7,60.2,45.1,54.2,48.7,43.6,96,70,35,30.14,30.03,4,1,9,0.00
2013-10-12,79.9,63.9,49.5,60.3,53.6,48.1,96,73,38,30.12,30.02,7,2,12,0.00
2013-10-13,67.9,59.3,46.9,61.1,46.9,40.1,88,66,39,30.38,30.12,9,5,16,0.00
2013-10-14,67.3,52.4,39.8,51.4,44.0,38.5,96,76,43,30.40,30.23,6,3,13,0.00
2013-10-15,65.3,56.9,47.3,61.3,53.9,44.8,96,90,83,30.24,29.89,10,4,15,0.01
2013-10-16,62.8,53.7,45.4,61.0,47.3,41.8,94,79,64,30.00,29.89,11,6,19,0.00
2013-10-17,50.6,45.8,41.2,47.5,43.4,39.8,97,91,81,29.98,29.88,13,4,17,0.18
2013-10-18,63.2,48.8,41.1,48.6,42.3,38.9,94,80,49,30.01,29.92,11,4,17,0.01
2013-10-19,51.7,44.0,39.1,41.5,38.0,34.6,95,81,53,29.99,29.87,12,4,18,0.23
2013-10-20,63.6,50.9,39.7,44.6,40.2,35.5,86,68,48,29.99,29.90,12,6,21,0.00
2013-10-21,54.9,48.3,38.2,46.9,41.3,28.8,89,77,65,30.01,29.91,10,6,21,0.00
2013-10-22,47.4,36.7,28.7,35.3,29.6,24.9,95,77,47,30.06,29.93,7,4,11,0.13
2013-10-23,44.9,38.0,33.0,37.3,32.7,27.9,97,83,56,30.07,29.88,13,5,21,0.07
2013-10-24,42.2,37.3,33.2,33.0,29.5,24.4,89,74,57,30.31,30.06,12,5,18,0.00
2013-10-25,47.2,36.9,27.5,31.4,27.5,24.7,89,70,46,30.47,30.25,12,5,17,0.00
2013-10-26,55.9,43.2,35.3,39.9,32.1,26.8,75,65,47,30.25,29.91,16,8,27,0.00
2013-10-27,54.4,41.3,28.8,34.8,31.2,26.9,94,70,41,30.14,30.06,8,2,14,0.00
2013-10-28,59.4,43.4,29.5,38.4,32.5,27.4,94,69,37,30.36,30.11,5,1,9,0.00
2013-10-29,54.9,45.0,35.0,43.0,39.1,33.3,94,80,61,30.42,30.23,4,2,10,0.00
2013-10-30,63.0,54.4,45.3,62.1,51.4,42.8,98,90,77,30.23,29.94,9,3,13,0.08
2013-10-31,63.0,60.2,53.5,62.0,58.9,51.6,97,95,91,29.94,29.26,14,9,24,1.27
2013-11-1,53.2,48.1,44.3,51.5,44.0,40.6,95,86,76,29.76,29.36,16,9,29,0.01
2013-11-2,47.6,44.1,42.0,43.4,41.2,38.9,94,90,80,30.14,29.76,10,4,17,0.05
2013-11-3,51.2,42.3,34.1,40.1,37.5,33.1,97,84,61,30.39,30.14,6,2,11,0.01
2013-11-4,55.2,45.8,38.2,42.6,38.4,34.1,87,76,58,30.41,30.28,10,4,14,0.00
2013-11-5,57.0,51.0,44.3,48.5,44.6,40.1,91,79,69,30.39,30.14,8,4,15,0.00
2013-11-6,55.9,51.2,40.8,52.7,46.8,38.7,96,86,66,30.15,29.87,14,8,20,0.13
2013-11-7,46.7,39.7,31.5,38.8,32.3,27.1,92,76,49,30.30,30.11,12,6,19,0.00
2013-11-8,48.7,37.9,28.8,33.4,30.7,27.0,94,77,53,30.41,30.20,6,3,9,0.00
2013-11-9,59.7,49.0,40.4,42.5,37.0,30.2,73,64,50,30.20,29.97,18,9,29,0.00
2013-11-10,47.6,40.6,33.9,38.5,31.3,27.9,83,70,56,30.36,30.08,13,6,21,0.00
2013-11-11,50.5,39.4,27.1,39.3,33.2,24.1,95,79,60,30.41,30.11,16,7,27,0.00
2013-11-12,32.6,27.8,22.6,25.4,22.2,18.5,87,79,68,30.68,30.41,10,6,16,0.00
2013-11-13,37.2,27.6,18.5,22.0,19.3,16.1,90,72,50,30.67,30.36,12,7,17,0.00
2013-11-14,51.5,38.2,27.5,26.0,23.4,21.1,79,57,31,30.36,30.11,15,9,25,0.00
2013-11-15,51.0,43.3,38.3,34.9,29.4,25.1,82,58,46,30.13,30.05,12,6,17,0.00
2013-11-16,58.8,49.7,39.5,56.4,46.7,35.3,95,90,82,30.09,29.77,14,8,23,0.02
2013-11-17,63.6,57.1,46.1,60.5,53.6,39.9,95,88,73,29.80,29.34,21,14,42,0.57
2013-11-18,46.0,41.2,33.5,40.6,33.7,26.9,86,75,59,30.24,29.75,15,10,29,0.00
2013-11-19,40.9,33.7,28.9,29.9,27.2,25.1,87,77,63,30.41,30.24,8,3,12,0.00
2013-11-20,46.0,35.9,27.1,36.3,29.1,24.0,88,77,61,30.41,30.21,10,4,16,0.00
2013-11-21,48.0,44.9,42.2,47.5,41.7,35.6,98,89,71,30.30,30.20,10,4,16,0.49
2013-11-22,47.9,41.1,30.2,47.4,39.1,27.3,98,93,84,30.47,30.19,17,8,26,0.08
2013-11-23,30.2,25.5,19.5,27.3,20.2,14.4,91,80,65,30.67,30.42,21,10,32,0.00
2013-11-24,25.8,19.6,14.5,15.9,12.6,7.7,88,74,58,30.77,30.56,10,4,12,0.00
2013-11-25,31.2,26.0,18.0,24.9,17.2,11.0,89,70,55,30.56,30.21,13,8,18,0.00
2013-11-26,35.4,30.6,26.9,28.4,25.6,23.2,90,82,71,30.23,30.02,17,5,21,0.00
2013-11-27,27.1,24.1,20.0,24.3,19.3,13.5,90,82,69,30.34,30.05,12,8,22,0.00
2013-11-28,34.3,25.8,19.8,20.1,16.5,13.2,80,68,50,30.51,30.28,15,6,20,0.00
2013-11-29,36.8,26.5,15.1,23.2,19.4,13.2,93,75,56,30.70,30.51,5,2,7,0.00
2013-11-30,48.9,35.6,26.9,31.9,26.5,21.0,84,70,51,30.55,30.17,12,5,17,0.00
2013-12-1,46.9,38.3,31.3,36.3,31.1,26.3,86,75,65,30.17,30.01,8,4,11,0.00
2013-12-2,39.9,35.4,31.8,33.8,31.2,28.4,94,85,72,30.02,29.85,8,5,13,0.03
2013-12-3,47.5,41.5,34.8,45.6,39.9,33.2,96,94,92,29.88,29.79,8,4,13,0.01
2013-12-4,57.9,50.8,42.7,56.0,49.6,41.7,99,96,92,29.86,29.65,9,5,16,0.02
2013-12-5,56.2,35.5,25.0,54.2,31.0,18.8,94,84,74,30.25,29.69,14,8,22,0.00
2013-12-6,27.4,25.1,20.6,22.1,19.7,15.9,82,80,77,30.50,30.22,10,7,15,0.00
2013-12-7,24.7,18.7,13.6,15.9,12.7,10.2,86,77,61,30.70,30.50,10,5,14,0.00
2013-12-8,27.4,21.7,16.8,26.3,17.7,11.9,96,84,75,30.62,30.04,14,7,21,0.00
2013-12-9,28.2,22.9,15.9,26.9,18.6,8.4,95,83,71,30.28,30.01,15,9,23,0.00
2013-12-10,25.4,16.5,5.4,13.9,8.7,1.6,84,72,56,30.39,30.16,21,8,33,0.00
2013-12-11,22.0,16.8,7.0,18.5,11.3,0.9,90,79,70,30.60,30.38,11,5,15,0.00
2013-12-12,25.7,11.4,-0.3,7.3,1.5,-4.8,83,66,37,30.62,30.36,15,7,25,0.00
2013-12-13,36.1,24.3,14.7,28.2,16.6,6.5,95,73,58,30.37,30.19,7,4,12,0.00
2013-12-14,30.6,27.3,21.8,29.9,26.0,19.3,97,95,90,30.21,29.82,13,7,18,0.00
2013-12-15,25.3,17.2,12.5,23.3,13.6,8.4,93,86,77,30.19,29.97,16,9,26,0.00
2013-12-16,20.7,16.6,12.1,19.1,13.3,8.2,94,87,77,30.23,30.08,8,3,14,0.00
2013-12-17,27.3,21.5,16.8,24.8,19.4,15.1,94,92,85,30.17,30.05,14,7,20,0.00
2013-12-18,32.9,23.0,12.5,22.8,16.9,9.1,87,78,65,30.31,30.01,13,8,20,0.00
2013-12-19,43.3,39.7,32.9,39.1,33.8,22.5,90,79,65,30.05,29.90,11,6,16,0.00
2013-12-20,56.0,47.9,41.6,54.6,46.5,39.0,99,95,86,29.90,29.75,11,6,16,0.18
2013-12-21,49.1,36.6,34.0,46.2,35.6,33.0,97,96,89,29.86,29.54,16,6,23,1.61
2013-12-22,37.6,34.3,29.8,36.3,33.0,27.8,98,95,88,30.11,29.47,16,9,23,0.06
2013-12-23,29.8,23.2,9.9,28.0,19.4,4.5,93,85,75,30.48,30.11,12,8,21,0.00
2013-12-24,17.2,9.6,2.1,12.5,5.5,-1.9,90,83,77,30.65,30.48,11,6,18,0.00
2013-12-25,22.3,19.4,16.2,17.5,14.6,12.5,85,81,76,30.54,30.38,12,8,18,0.00
2013-12-30,18.0,17.5,16.9,14.3,12.9,11.9,88,82,78,30.27,30.24,9,6,12,0.00
2013-12-31,20.9,16.1,11.2,15.5,11.9,7.0,90,84,75,30.45,30.23,12,6,21,0.00
2014-1-1,23.5,19.6,14.9,20.1,16.6,12.7,91,88,86,30.36,30.15,12,7,18,0.00
2014-1-2,15.8,12.8,4.7,13.6,9.2,-1.5,92,85,72,30.43,30.04,19,11,26,0.00